Погода в Козловке

Россия / Саратовская область     50°51′36″N   47°34′33″E
темп.,
°C
ветер,
м/с
пор.,
м/с
влажн.,
%
обл.,
%
осадки,
мм/ч
давл.,
гПа
погр.,
м
18 мая, вт
вт1801:00+20в511420 0.0 1013172
04:00+18в511420 0.0 1013155
07:00+20вюв615400 0.0 1012289
10:00+28юв711270 0.0 1012501
13:00+32юв811200 0.0 10122619
16:00+32вюв910165 0.0 10113778
19:00+29вюв612262 0.0 1010332
22:00+25в816375 0.0 1010356
19 мая, ср
ср1901:00+22в464497 0.1 101196
04:00+20в4547100 0.1 101061
07:00+21в6134981 0.0 1010289
10:00+27в81133100 0.0 1009495
13:00+29юв71129100 0.0 10091144
16:00+32юв9101896 0.0 10092626
19:00+28вюв51132100 0.0 1008301
22:00+25вюв10194199 0.0 1009653
20 мая, чт
чт2001:00+22юв4950100 0.0 1009240
04:00+18з61168100 0.0 1011446
07:00+17с3469100 0.6 1012224
10:00+19з3260100 0.6 1013686
13:00+21юз3350100 0.2 10131477
16:00+22юз6743100 0.2 10121792
19:00+20зюз5754100 0.0 1013968
22:00+17зюз356551 0.1 1014150
21 мая, пт
пт2101:00+15юз49744 0.1 1014177
04:00+14юз35822 0.1 1015105
07:00+16юз46742 0.0 1017253
10:00+20юз56537 0.0 10181223
13:00+23зюз564027 0.0 10181680
16:00+25з443565 0.0 10181794
19:00+24юз224048 0.0 1018232
22:00+19ююв114894 0.0 101911
22 мая, сб
сб2201:00+19в334686 0.0 101933
04:00+17в46529 0.0 101998
07:00+19вюв512565 0.0 1019308
10:00+25юв911395 0.0 1018858
13:00+29юв911294 0.0 10171573
16:00+30ююв81025100 0.0 10161828
19:00+28юв61135100 0.0 1016369
22:00+23вюв61443100 0.0 1016262